Theta_e
339 346 347 344 341 339 340 339 338 343 345 343 341 338 340 345 341 341 351 355 351 353 353 347 346 347 346 346 347 346 347 347 347 348 348 347 346 347 348 347 348 349 349 350 351 351 349 349 349 350 351 351 352 352 353 354 354 355 355 350 343 343 349 353 352 349 347 350 352 350 350 350 347 345 346 348 347 347 347 347 345 344 344 344 346 345 345
339 344 343 344 343 338 338 339 340 342 343 343 344 342 343 345 344 346 353 355 353 351 348 345 344 343 344 345 344 344 345 346 346 346 346 346 346 346 347 348 348 350 351 349 349 351 351 351 350 350 351 352 353 353 353 354 354 355 354 350 346 344 347 351 352 352 349 350 352 351 351 351 349 347 347 348 348 347 346 346 346 346 344 344 346 346 345
339 346 344 342 343 339 336 338 343 345 342 343 345 345 346 349 350 351 352 354 352 347 344 344 342 340 342 342 341 343 344 344 346 346 345 345 345 346 347 348 348 350 351 351 350 350 351 350 351 352 352 352 352 352 353 354 354 354 353 351 347 345 348 351 352 352 351 350 351 352 351 350 350 349 347 348 348 347 346 345 345 346 345 344 345 345 345
336 345 340 335 338 337 334 335 340 343 341 342 345 346 347 349 350 349 348 349 349 347 344 342 340 341 342 341 341 342 342 344 346 345 344 345 345 345 345 346 348 350 350 351 351 350 350 350 351 351 352 352 352 352 352 353 353 353 352 350 346 345 349 352 352 352 352 351 351 352 351 351 350 349 348 347 347 347 346 345 345 345 345 345 344 345 345
339 346 337 335 337 333 334 339 340 340 341 343 345 346 347 348 349 350 349 347 347 346 345 345 343 342 342 342 342 342 342 344 345 344 345 345 345 346 345 345 348 350 350 350 351 351 350 349 350 350 351 351 352 352 352 351 351 351 351 349 346 347 351 353 352 353 353 352 351 351 352 351 350 350 349 347 347 347 346 345 345 345 346 345 345 346 346
340 345 339 339 340 335 340 346 340 338 342 344 346 347 346 348 349 350 350 349 347 345 344 346 344 342 343 343 342 342 344 344 344 344 345 344 345 347 347 346 348 350 350 350 350 352 351 349 349 349 350 351 351 352 352 351 350 350 350 350 349 350 353 353 353 353 353 353 352 351 352 352 351 350 349 348 347 346 346 346 346 346 346 346 346 347 347
340 344 337 334 337 344 350 343 336 338 340 342 346 348 347 348 348 348 350 349 345 343 342 343 342 342 342 343 343 343 344 345 345 345 345 345 345 346 347 347 348 349 350 351 351 353 353 352 351 350 351 351 350 351 353 353 353 352 351 350 351 353 354 354 354 354 354 354 353 352 352 352 352 351 350 350 349 348 347 347 346 346 346 346 347 347 347
334 336 334 332 336 346 346 337 336 341 339 339 344 347 347 347 348 350 353 348 342 341 341 341 341 342 342 342 343 343 344 345 345 345 345 344 343 344 345 346 347 348 349 350 351 352 353 354 353 353 353 352 351 350 350 351 353 354 354 354 353 354 355 355 354 354 354 354 354 353 353 353 353 352 351 351 351 351 350 349 349 348 347 347 348 348 349
329 333 336 338 338 334 335 338 341 342 338 338 345 349 346 345 345 348 351 346 340 340 341 341 341 341 341 341 343 343 344 344 344 343 344 343 342 344 344 344 346 348 348 349 350 350 351 352 352 353 353 353 353 352 350 350 351 351 353 355 354 355 355 355 355 354 354 354 354 355 354 354 354 353 353 352 352 352 352 352 351 351 350 349 349 349 349
332 334 330 332 333 332 338 344 340 335 333 335 344 352 349 345 343 343 346 345 341 339 340 341 340 341 343 344 342 342 343 343 342 342 342 342 342 343 343 344 345 347 348 349 349 349 349 350 350 351 352 352 353 352 352 353 353 352 352 352 352 353 355 355 355 354 354 354 355 355 354 353 352 351 352 353 353 353 353 353 352 352 351 350 349 348 348
329 328 323 326 333 337 344 345 336 333 333 333 340 349 348 345 343 341 342 342 340 339 340 340 339 341 347 347 342 341 343 342 342 342 341 342 342 342 342 343 343 345 347 348 349 349 349 349 348 349 349 349 350 350 351 352 353 353 353 351 351 352 352 354 354 354 353 354 354 354 353 350 349 349 351 353 353 352 352 351 351 351 349 348 346 345 345
330 329 325 328 335 339 342 341 337 336 335 333 336 341 344 344 342 341 341 341 340 340 340 340 339 341 346 347 342 341 343 342 342 343 342 342 342 341 342 342 342 344 346 347 349 350 349 348 348 347 347 347 347 347 348 349 349 349 350 351 351 351 351 352 353 353 353 354 354 354 353 350 350 351 351 352 352 351 350 349 348 348 347 346 345 344 344
331 329 327 331 340 345 343 339 338 337 333 333 336 340 343 343 341 341 342 341 340 340 339 340 340 339 341 343 342 341 342 341 341 342 341 341 341 341 341 342 342 343 344 346 349 350 349 349 347 346 346 346 346 345 346 347 346 345 345 347 348 348 348 350 352 353 353 354 354 353 351 350 351 352 352 352 351 350 349 349 349 348 348 348 347 346 346
329 333 335 336 341 344 338 334 337 335 332 338 343 343 342 341 341 342 341 340 341 341 340 340 340 339 341 342 342 342 341 341 341 340 340 341 341 342 342 342 342 343 344 346 347 349 350 349 347 346 346 345 345 345 345 346 346 345 345 346 347 347 347 349 351 353 354 353 353 352 351 350 351 352 351 351 351 350 350 349 349 350 350 349 348 348 348
333 339 341 338 340 342 335 336 342 341 338 342 344 342 341 341 342 342 340 340 342 341 340 340 340 341 342 341 341 341 340 340 340 340 341 342 343 343 343 343 343 344 345 346 347 348 349 349 348 348 347 346 346 346 345 346 347 345 345 346 346 346 347 347 347 349 350 349 347 346 347 348 348 349 349 349 349 349 348 348 348 348 348 349 349 349 349
336 342 344 342 342 342 338 338 344 343 340 339 339 340 342 343 341 339 340 341 341 339 340 341 340 341 341 340 340 340 339 339 340 340 341 342 341 342 343 343 344 344 345 346 346 347 349 349 349 348 347 346 346 345 345 346 347 346 345 347 347 346 347 346 345 345 346 345 343 343 345 345 345 345 346 346 346 346 346 346 346 346 347 348 348 348 350
334 342 347 343 338 339 339 339 340 339 338 338 339 340 341 341 341 339 339 340 340 339 339 340 340 340 340 339 339 338 338 339 339 339 339 339 339 340 341 342 343 343 344 345 346 346 347 348 348 348 347 346 346 346 345 346 346 346 345 346 346 346 345 345 345 344 345 345 345 345 345 345 345 344 345 345 345 345 345 344 343 343 345 347 346 346 349
335 338 338 335 336 338 338 337 337 338 338 338 339 339 339 340 341 339 339 340 340 338 339 340 340 340 339 339 338 338 338 338 338 338 338 338 338 339 339 340 341 341 342 343 344 345 346 346 346 346 346 346 346 346 346 346 345 345 344 344 344 344 344 344 344 344 345 345 346 346 345 345 345 345 345 345 344 344 344 343 342 342 343 344 344 345 348
337 338 336 334 336 337 336 336 337 336 337 337 338 340 339 339 340 339 339 340 339 338 340 340 339 339 338 338 338 337 338 338 338 338 338 337 338 337 337 338 338 338 339 340 341 342 342 343 344 344 344 344 345 345 346 346 345 346 345 345 344 344 344 344 344 345 345 345 345 345 344 345 344 344 344 344 343 343 343 342 343 343 342 342 343 344 345
340 340 338 335 334 334 335 337 336 335 336 337 337 338 337 337 339 340 339 339 338 339 340 340 339 338 338 337 337 337 336 337 337 337 337 337 337 337 337 336 336 336 337 337 337 338 339 340 341 341 342 342 343 343 345 345 345 345 344 343 343 342 342 343 343 344 344 343 343 343 343 343 343 343 343 343 343 343 343 343 343 343 342 343 344 343 344
342 340 337 335 336 336 335 334 334 334 335 336 336 337 336 336 339 340 339 339 339 339 340 340 338 337 337 336 336 336 335 336 336 337 336 336 336 337 337 336 335 335 334 333 332 333 335 337 338 339 340 340 341 342 343 343 343 344 343 342 342 342 342 342 343 342 342 341 341 341 341 342 342 343 343 343 343 342 341 340 340 341 342 342 342 342 342
345 344 340 336 338 340 337 333 333 335 335 335 336 336 336 337 339 339 339 338 338 338 340 339 335 334 336 336 336 335 335 335 336 336 336 336 336 336 336 335 334 332 331 329 328 329 331 333 335 335 336 337 337 338 339 340 341 342 342 342 341 341 341 342 341 341 341 340 340 341 341 341 342 342 342 341 340 338 336 335 336 336 338 338 339 339 339
344 341 337 333 335 338 335 332 333 334 335 336 335 334 336 338 338 339 339 337 337 338 339 337 334 334 334 335 335 335 335 335 335 335 335 335 335 335 334 334 332 331 331 331 329 329 330 330 331 331 332 332 333 333 334 335 336 336 337 337 336 336 336 336 336 337 337 336 336 336 335 335 336 336 336 334 333 331 329 328 329 330 331 332 333 333 332
337 334 334 334 334 334 333 333 334 334 334 336 336 335 336 337 338 338 337 336 335 337 338 337 334 334 334 334 335 335 335 335 334 333 333 333 333 333 333 333 331 330 331 331 331 331 331 331 330 329 329 329 329 330 331 331 331 331 331 331 331 331 331 330 330 329 329 329 329 328 328 328 327 326 326 325 323 322 321 321 321 322 322 322 322 322 321
333 333 334 334 332 332 333 334 334 333 334 336 337 336 336 336 337 336 335 334 334 335 337 336 334 333 334 335 335 334 333 332 329 327 328 329 329 330 331 330 330 329 330 330 330 330 331 331 330 328 327 327 327 326 327 328 328 328 328 328 329 329 330 330 330 328 326 325 324 323 323 323 322 321 319 317 315 314 314 314 314 314 314 313 313 312 311
331 333 333 332 332 333 334 335 334 334 335 336 337 337 336 336 336 336 335 334 333 333 333 333 333 333 333 333 332 331 331 330 327 326 327 328 329 330 330 330 330 331 330 330 329 328 328 327 327 327 327 328 327 326 324 324 324 325 324 325 325 326 327 328 330 330 328 327 326 325 324 324 324 324 322 320 318 315 312 310 309 309 309 309 308 308 308
331 331 331 333 335 334 333 333 333 334 336 336 336 337 336 336 335 335 334 331 330 329 328 327 329 331 331 330 330 330 331 332 331 330 330 331 331 331 331 331 331 331 330 329 329 329 328 328 329 330 329 329 329 329 328 327 327 326 325 325 325 326 327 328 328 328 328 327 327 327 327 327 328 327 326 326 325 322 318 315 312 310 309 308 308 308 307
332 329 327 331 334 333 333 333 334 335 337 337 336 337 336 335 334 335 333 330 328 327 326 326 328 331 330 329 330 331 332 332 332 331 331 331 331 332 331 331 330 329 329 330 331 331 331 332 332 332 332 332 331 331 331 331 330 329 327 324 323 322 323 324 326 328 328 327 327 327 327 328 328 327 325 325 326 325 324 323 321 317 311 308 308 307 307
331 329 329 329 329 331 334 335 336 337 337 337 337 337 335 334 334 334 333 330 327 326 326 327 329 329 329 329 330 331 332 331 331 330 330 330 331 331 331 331 330 330 330 331 331 331 332 331 331 331 331 332 331 332 332 332 332 331 328 324 322 321 318 318 321 324 325 325 325 326 326 326 326 326 324 325 326 326 326 326 326 323 318 315 313 312 310
331 331 331 331 331 333 334 336 336 336 336 337 338 336 335 334 333 332 330 328 327 326 326 327 327 327 328 328 330 330 330 330 329 329 330 330 329 329 329 331 331 331 331 331 331 330 330 330 329 328 329 328 328 329 329 329 330 329 325 322 325 327 326 324 324 324 324 325 326 327 326 325 325 325 325 326 327 327 327 327 327 326 324 323 322 321 318
332 333 333 333 333 334 334 335 336 335 335 336 337 336 334 332 330 328 327 327 326 326 326 326 326 327 328 329 329 329 329 328 329 331 331 330 329 327 328 328 328 328 329 330 330 330 329 329 329 329 329 329 328 328 327 327 327 326 322 321 326 329 328 328 328 328 327 328 328 328 328 328 327 327 327 327 328 328 328 328 327 327 327 326 326 325 324
334 335 335 334 335 335 335 336 336 335 335 336 336 335 333 330 328 327 327 326 326 327 326 325 326 328 330 330 330 329 329 329 330 330 331 331 330 329 329 328 327 327 327 329 329 330 330 330 330 330 330 330 330 329 328 328 328 327 324 323 327 329 328 327 328 328 327 328 328 327 328 328 328 328 328 328 328 328 327 327 327 327 327 327 326 326 326
336 337 337 336 337 337 337 337 335 334 335 336 335 333 332 330 328 327 327 327 327 328 327 326 327 329 331 331 330 330 330 330 330 331 331 331 332 332 331 330 329 329 330 330 331 331 331 331 330 330 330 330 330 330 330 330 329 328 326 324 325 328 327 327 327 327 327 328 328 327 327 328 328 328 328 328 327 327 327 327 327 326 326 326 326 325 325
333 334 334 334 335 334 333 334 334 334 336 336 335 333 332 330 328 328 328 328 328 328 328 328 328 329 331 330 330 330 330 329 330 331 331 331 332 332 332 331 330 331 331 331 331 331 331 331 330 329 330 330 329 329 330 330 329 329 329 327 327 327 327 326 326 327 326 327 327 327 328 328 327 327 327 327 327 327 327 327 327 326 326 326 326 325 325
330 330 329 330 332 330 328 328 330 332 335 336 335 333 332 330 329 328 328 328 328 328 328 328 328 329 330 330 330 330 329 329 330 331 330 331 331 331 331 331 330 330 330 330 330 329 328 328 326 324 324 327 328 328 328 327 326 327 327 327 326 325 325 325 325 325 324 325 325 326 327 327 326 325 325 326 326 326 326 326 326 325 325 324 324 324 324
330 330 331 331 332 332 329 327 327 330 333 335 335 334 333 332 330 329 329 329 329 328 328 329 329 329 330 329 329 330 330 329 329 330 330 330 331 331 331 330 330 329 329 329 327 325 322 320 317 313 312 316 321 324 325 325 324 324 324 324 324 323 322 322 324 324 324 324 324 325 325 325 323 322 322 323 324 323 323 323 323 323 323 322 320 320 322
330 331 331 332 332 332 330 328 327 328 331 334 335 335 334 333 332 331 330 329 329 329 329 329 329 329 329 329 329 330 330 330 329 329 330 330 331 330 329 329 329 328 327 325 323 319 316 313 311 308 306 306 310 313 315 317 318 318 317 319 321 320 319 320 321 322 323 323 323 323 323 323 321 320 321 321 321 320 319 320 321 321 321 320 318 317 318
330 331 331 332 333 333 331 329 328 328 331 333 334 334 334 334 334 333 332 331 330 329 329 329 329 329 329 329 329 330 330 330 330 330 330 330 328 325 323 324 324 323 320 318 317 316 315 313 311 308 305 304 306 307 308 308 310 311 312 314 317 318 317 318 318 319 320 321 321 321 322 321 320 319 319 319 319 318 317 318 320 321 320 318 317 316 317
329 331 332 333 333 333 332 330 329 330 331 332 333 334 334 334 334 334 334 333 331 330 329 329 329 329 329 329 329 330 330 330 329 329 329 327 324 321 320 320 320 320 318 317 316 317 317 316 312 308 305 306 307 307 306 307 310 312 312 313 314 316 316 316 317 317 317 317 318 319 320 319 319 318 317 317 318 318 318 317 318 318 318 317 317 316 317
329 331 333 334 334 334 333 332 331 331 329 329 330 333 334 334 334 334 333 332 331 331 330 329 329 329 330 330 330 329 329 329 329 328 326 322 319 319 320 321 321 321 320 318 317 318 317 314 310 308 309 309 308 307 309 312 314 314 314 314 314 315 315 315 316 316 316 316 316 316 316 317 317 316 316 316 316 317 317 317 317 317 316 316 316 317 317
330 331 333 333 333 333 332 332 332 331 330 329 330 330 332 333 333 331 330 331 331 330 329 329 329 329 329 329 329 329 329 328 327 324 319 314 312 314 316 318 319 319 319 318 318 318 316 311 308 309 311 311 308 308 312 316 316 315 315 315 315 315 316 315 315 315 316 315 315 315 315 315 316 315 315 316 316 316 316 316 316 316 316 315 315 316 316
329 331 332 333 332 332 331 332 332 332 332 331 330 330 331 332 331 330 330 330 330 330 329 329 329 329 329 329 328 328 328 328 325 319 314 310 309 310 312 314 317 319 319 318 316 314 311 309 309 310 312 312 309 308 311 316 316 314 315 315 315 315 315 315 314 315 315 315 315 315 315 315 315 315 315 315 315 315 315 315 315 315 315 315 314 314 314
328 329 330 331 331 331 330 330 331 332 332 332 331 331 331 331 331 331 331 331 330 330 330 329 329 329 329 328 328 328 327 325 320 315 313 313 314 313 313 314 317 317 316 314 313 311 309 310 312 312 313 314 312 308 309 314 316 314 314 314 314 314 314 314 314 314 314 314 314 315 315 315 315 315 315 315 315 314 315 315 314 314 314 314 314 314 314
329 329 329 330 331 330 329 330 331 332 333 333 333 333 333 332 332 331 331 331 331 331 330 330 329 329 328 327 328 327 324 320 317 315 313 313 314 316 316 315 314 314 314 315 314 312 310 310 312 313 314 315 313 308 307 311 314 313 313 313 313 313 313 313 313 313 313 312 312 313 313 314 314 314 314 314 314 314 314 314 314 314 314 314 313 313 313
330 330 330 330 330 330 330 330 330 331 332 332 332 332 332 332 332 332 331 331 331 330 330 330 329 328 327 328 327 324 320 318 317 317 314 311 311 314 317 317 317 317 317 316 315 312 310 311 312 314 314 314 312 308 307 311 313 313 312 312 312 312 312 312 312 312 312 312 312 312 312 312 312 312 312 313 313 313 313 312 312 312 312 312 312 312 312
328 328 328 329 329 330 331 330 331 332 332 332 332 331 329 329 330 331 331 330 330 330 329 329 328 328 328 327 324 320 318 318 317 316 314 313 313 315 317 318 319 319 317 313 310 310 310 310 311 311 310 310 308 307 308 311 312 312 311 312 312 311 311 311 312 312 312 312 312 312 312 312 311 311 312 312 312 312 312 312 312 312 312 311 311 311 311
327 327 327 327 329 330 331 331 332 333 332 331 331 330 328 326 328 330 330 329 329 329 328 328 328 327 326 324 320 318 319 319 317 315 315 315 315 315 316 317 318 318 314 309 308 309 309 307 305 305 306 306 306 307 308 310 311 311 311 311 311 311 311 311 311 311 311 311 311 311 311 311 312 312 312 312 312 312 312 312 312 312 311 311 311 311 311
328 328 329 329 330 331 331 331 332 332 331 329 329 329 327 325 326 328 329 329 328 328 327 327 326 326 324 321 319 318 319 319 317 315 315 316 316 315 315 316 316 313 309 306 306 308 307 305 303 303 304 305 306 306 307 307 308 309 310 310 310 310 310 310 310 310 310 310 310 310 311 311 311 311 311 311 311 311 311 311 311 311 310 310 310 310 310
327 328 328 329 331 331 331 331 331 331 330 329 329 328 326 324 326 328 329 328 327 327 326 325 325 324 322 320 319 319 319 318 315 312 313 316 317 318 318 317 315 310 306 304 304 305 304 303 302 303 304 305 306 306 307 307 308 308 309 309 310 309 309 309 309 309 309 309 310 310 310 311 311 311 311 311 311 311 311 310 310 310 309 309 309 308 308
329 328 328 328 330 331 331 331 331 331 330 328 327 327 325 325 327 328 329 327 327 327 326 325 324 322 320 319 319 318 318 316 313 311 312 315 317 318 319 318 314 311 309 308 306 303 302 302 303 303 304 305 306 307 307 306 306 307 308 308 308 308 308 308 308 309 309 309 309 310 310 310 311 311 310 310 310 310 309 309 309 308 308 308 308 307 306
329 329 328 328 329 330 331 331 331 330 329 327 326 326 324 324 326 328 328 327 327 327 325 324 323 321 319 318 318 318 316 314 313 314 315 316 317 318 318 317 314 313 312 310 306 303 302 303 303 304 305 306 307 307 307 306 305 305 307 308 308 307 307 307 307 308 308 309 309 309 309 309 309 309 309 309 309 309 309 308 308 308 307 307 306 306 305
329 329 328 328 328 329 329 330 329 329 327 326 325 325 324 323 325 327 328 327 327 327 325 323 322 320 319 319 319 317 315 315 316 317 318 317 316 316 316 316 315 313 310 307 304 303 303 304 305 306 306 307 307 307 307 306 305 306 306 307 307 307 307 307 307 307 308 308 308 307 308 308 308 307 307 308 308 308 308 308 307 307 307 306 306 306 305
Wind_Speed
6 6 6 5 5 3 3 3 4 5 5 4 1 3 4 3 4 4 6 6 5 4 2 3 4 6 6 7 10 12 13 14 14 14 15 14 10 4 6 12 14 14 14 14 19 30 40 43 43 41 40 40 39 38 37 34 33 30 27 25 25 25 27 28 27 26 27 28 25 21 20 18 18 22 25 23 21 21 22 22 21 20 20 20 20 22 22
3 5 6 5 5 3 3 4 6 6 5 5 3 4 3 3 4 2 3 6 5 2 2 2 5 9 10 11 13 14 13 14 14 14 14 13 10 6 2 7 10 10 9 10 13 19 25 33 41 44 44 42 39 38 38 36 34 32 29 28 27 26 27 29 29 26 25 27 27 24 22 21 18 20 23 25 24 22 22 22 23 23 22 21 21 21 22
4 5 5 6 6 5 5 5 5 5 5 3 3 3 2 3 1 2 2 4 3 2 2 5 9 12 13 14 13 12 12 12 14 15 14 13 12 8 3 2 5 8 7 7 11 16 17 18 25 34 42 44 41 38 37 37 36 33 31 30 29 28 27 28 30 29 26 27 29 27 25 24 23 22 23 24 25 25 23 23 24 25 25 24 23 21 21
4 5 5 7 6 4 4 6 6 5 3 1 1 2 1 2 1 2 1 3 4 3 1 5 10 11 11 11 9 9 10 10 12 14 14 13 13 11 5 2 4 7 9 8 8 13 16 17 18 20 27 35 39 41 40 38 36 34 32 31 30 29 29 29 31 32 29 29 30 30 28 27 27 26 25 24 24 24 25 24 23 24 25 26 24 23 22
4 6 6 5 1 3 3 5 4 2 2 5 4 2 2 1 2 1 2 4 4 2 1 4 6 6 7 7 6 8 10 10 11 12 13 12 12 12 8 3 4 5 8 11 11 11 14 19 21 20 20 23 26 33 38 37 35 34 32 32 31 30 29 31 33 33 31 30 31 32 31 28 28 28 27 26 25 24 23 22 20 21 24 25 24 24 22
4 6 3 2 5 2 4 4 3 2 2 2 3 2 2 1 3 3 3 2 1 2 3 3 4 4 4 5 7 10 11 11 13 15 14 14 14 15 11 5 5 6 7 10 13 14 15 18 20 21 22 23 20 21 28 32 33 33 33 32 32 31 31 33 34 34 33 31 31 32 33 30 29 29 28 27 26 25 24 22 19 19 21 23 24 24 23
2 1 3 5 1 5 5 0 5 6 6 3 2 2 1 2 5 4 2 1 2 3 4 6 8 8 8 7 7 8 10 11 14 17 16 14 14 14 12 8 6 7 7 9 13 15 15 16 19 20 20 22 22 22 23 26 29 31 33 32 32 32 33 35 35 35 35 33 32 32 33 32 30 29 28 26 25 25 25 24 23 22 22 22 23 23 23
1 1 3 1 4 6 2 4 4 6 8 4 2 1 3 2 4 5 3 3 3 6 7 8 11 13 12 11 9 9 10 11 13 14 13 12 11 10 10 8 6 6 6 7 10 12 11 12 16 18 17 19 22 23 24 25 26 28 31 33 34 35 36 36 36 36 36 35 33 32 33 34 32 30 29 27 25 24 25 25 26 26 26 26 25 24 24
2 3 2 2 2 3 2 1 1 3 6 8 6 2 2 4 1 5 5 3 4 5 7 11 11 9 7 8 8 9 10 10 11 13 11 10 9 8 9 8 5 4 4 5 7 9 10 10 11 12 13 17 19 21 24 28 29 30 31 32 32 34 36 36 36 37 37 36 34 33 33 31 28 26 25 25 25 25 24 25 25 26 26 27 26 25 25
2 4 1 1 2 1 4 3 3 4 4 6 7 5 1 5 2 6 7 5 5 6 8 11 8 2 2 2 3 6 9 8 9 11 9 8 7 6 6 6 4 4 4 4 6 7 8 8 8 7 9 11 13 15 20 24 25 26 27 27 27 27 29 32 35 34 32 31 31 30 27 23 21 21 22 23 24 24 23 23 23 24 24 24 23 23 23
1 4 3 2 2 4 5 4 5 10 11 2 6 5 3 4 4 8 8 5 7 9 11 11 5 2 2 1 0 5 7 6 7 10 9 7 6 5 4 5 4 4 5 4 5 6 6 6 6 6 6 6 8 10 13 17 19 20 22 25 27 25 24 29 33 31 26 26 27 26 22 19 18 20 21 22 21 21 21 22 22 22 22 22 22 23 23
1 3 2 1 2 3 4 5 7 14 14 3 6 2 5 4 6 8 9 8 8 11 12 9 3 1 1 2 1 6 8 7 8 10 9 7 5 3 3 5 5 3 4 4 5 6 6 5 4 4 3 4 4 6 6 7 10 13 16 21 26 25 23 26 28 24 22 24 25 21 18 17 18 19 20 20 20 20 21 22 22 22 22 22 22 23 24
1 2 2 1 2 4 4 6 10 13 11 3 4 2 5 5 7 8 9 9 9 9 8 6 3 1 4 5 7 8 7 7 8 9 7 5 4 4 5 5 3 1 3 5 6 6 6 4 4 3 2 2 2 2 2 1 1 3 5 11 18 19 20 22 21 21 21 21 18 15 14 16 17 17 17 16 16 17 18 19 19 20 20 20 21 23 24
1 2 3 1 3 4 4 7 10 9 5 1 3 4 5 8 9 8 8 10 10 7 7 7 6 9 11 11 10 8 6 6 7 6 4 4 5 5 7 8 6 3 3 4 4 5 6 5 4 4 2 1 1 0 2 4 4 5 4 4 7 9 13 16 18 20 18 15 13 13 14 16 16 15 13 13 13 14 15 16 15 15 16 19 23 24 25
1 2 3 2 2 4 4 5 6 4 1 5 6 7 8 9 10 9 9 9 9 10 14 15 14 15 15 13 10 9 7 7 6 5 4 4 6 7 9 10 8 6 6 6 4 5 6 6 4 4 3 1 1 2 5 7 6 5 6 6 6 8 11 13 13 14 12 10 10 11 13 14 14 12 12 12 12 13 13 13 13 14 15 19 24 26 27
2 2 1 2 4 3 3 2 2 2 5 9 12 12 12 12 11 10 11 10 10 16 21 20 17 15 15 14 13 12 11 9 8 8 8 8 9 9 11 11 9 8 7 7 6 6 6 6 5 3 2 2 3 3 4 6 6 6 8 9 9 10 11 11 10 10 9 8 8 9 10 11 11 11 11 12 12 12 12 11 12 13 16 20 24 28 29
2 3 4 5 6 6 5 7 10 9 9 11 12 13 14 14 12 11 12 13 15 20 22 20 18 17 16 15 15 14 12 11 11 12 12 12 12 12 12 11 10 10 9 8 8 8 7 6 6 4 4 5 6 6 4 3 4 5 7 8 8 8 8 9 8 7 7 7 7 8 8 8 9 10 11 10 10 9 9 8 7 9 13 20 22 24 26
1 3 5 8 10 10 9 10 11 11 11 11 13 14 14 13 10 9 11 13 17 21 21 19 19 17 15 15 14 13 12 12 12 13 12 12 13 14 15 14 13 13 13 11 11 10 9 7 7 6 6 7 8 7 6 4 3 4 5 6 7 7 8 8 8 7 7 6 6 6 6 5 5 6 6 5 5 3 3 4 4 7 7 15 18 18 20
1 1 2 7 11 12 12 11 10 10 10 10 11 12 11 10 8 7 9 13 19 21 19 18 19 17 15 15 14 13 13 13 13 13 13 13 15 18 19 18 18 17 18 17 16 14 12 9 7 6 5 6 7 7 7 5 4 4 4 4 5 7 8 8 8 7 6 6 5 5 5 4 4 4 4 3 3 1 1 1 2 5 3 9 11 10 11
2 2 4 8 12 13 13 12 11 11 10 9 9 9 8 8 8 8 10 15 20 20 17 17 18 17 15 16 16 16 16 15 15 15 15 16 19 20 19 19 19 19 20 20 19 18 16 14 11 8 7 8 7 6 6 5 4 3 2 2 4 7 8 7 7 7 7 7 6 6 6 6 6 7 7 5 5 4 3 4 5 4 5 6 6 5 5
2 2 5 9 8 5 9 12 12 11 10 9 7 8 9 8 8 9 13 17 18 17 17 17 17 16 15 16 18 19 19 19 18 18 17 18 19 18 17 16 17 17 18 19 19 19 18 16 15 14 13 12 10 8 7 6 3 2 1 2 4 6 6 5 6 7 8 8 8 8 8 8 9 9 9 7 6 5 5 5 5 5 4 3 3 2 3
2 3 8 12 6 2 10 16 14 12 10 7 7 9 10 8 9 11 14 17 16 15 18 18 17 17 17 16 19 21 21 20 18 16 16 18 18 17 16 16 16 17 18 19 20 20 18 16 17 17 17 16 15 13 12 9 6 5 5 6 8 8 7 7 8 9 9 10 10 10 10 10 10 10 10 9 7 7 8 8 8 7 5 4 3 3 3
5 9 18 21 10 4 12 18 15 13 11 8 7 9 9 8 9 11 14 16 16 18 20 19 17 18 19 19 21 22 20 17 15 15 16 17 17 17 16 16 15 16 17 19 20 21 20 19 18 18 18 18 17 16 15 14 13 13 13 14 16 16 15 16 15 15 15 15 15 16 15 14 13 13 13 12 11 11 12 12 11 10 9 7 7 7 7
4 9 20 23 12 5 10 16 15 13 11 8 7 8 7 9 11 12 15 17 18 20 22 20 16 18 20 22 22 21 19 16 14 14 14 13 14 14 14 14 15 15 16 16 18 19 19 19 20 20 19 19 17 16 16 15 16 17 18 19 21 22 22 22 21 20 20 20 20 20 19 18 17 16 15 15 15 14 14 14 13 12 11 10 9 9 8
6 12 18 17 11 6 9 13 13 11 10 8 7 6 6 9 13 14 17 18 18 20 22 20 18 18 20 22 21 19 18 16 14 15 15 15 15 16 16 16 16 16 16 16 15 15 16 16 17 18 18 18 17 16 16 16 16 17 18 18 20 21 21 21 22 22 22 22 22 21 20 19 19 18 17 16 16 15 14 13 13 12 11 10 9 9 8
9 16 15 10 8 9 12 14 13 11 9 7 5 5 7 11 14 16 17 18 19 20 20 19 19 19 20 21 20 18 18 16 16 18 20 20 20 19 19 18 17 17 16 15 14 14 14 15 17 17 17 17 17 16 16 16 16 17 17 17 17 17 18 19 19 19 20 21 22 22 21 20 19 19 19 19 18 16 15 14 13 12 11 11 10 10 10
14 18 15 11 11 14 15 13 11 11 10 7 6 8 11 14 17 17 17 18 20 19 18 19 21 21 20 20 19 19 19 18 18 18 19 18 17 18 18 18 17 16 16 16 17 17 17 17 17 17 17 16 15 15 16 16 17 17 17 16 15 14 13 14 15 16 17 18 19 20 19 18 17 17 18 18 19 18 17 16 15 13 12 12 11 11 11
16 15 11 7 10 15 15 11 9 10 10 8 8 11 13 16 19 18 17 20 22 20 19 21 21 21 20 20 21 21 21 20 18 17 17 17 17 17 18 17 16 16 17 17 17 16 16 16 15 15 14 13 12 12 12 13 15 16 16 15 15 13 11 10 11 12 12 14 15 15 15 15 14 14 15 16 17 18 17 17 17 15 13 12 11 10 10
15 14 8 5 8 13 13 10 9 11 11 9 11 14 15 16 17 15 15 21 24 23 22 21 20 21 22 21 21 22 22 20 18 17 18 18 18 17 17 16 15 16 16 16 14 13 13 13 13 13 13 12 10 11 10 10 11 12 13 13 15 16 15 13 12 10 10 11 13 13 13 13 12 11 13 15 16 17 17 17 17 17 16 14 13 11 10
16 14 10 8 12 14 13 12 12 13 12 12 14 16 15 15 15 16 19 24 26 25 23 22 22 23 23 21 21 23 21 19 18 18 18 17 16 16 16 15 14 15 15 14 13 12 12 12 12 13 13 12 11 11 10 9 9 8 7 9 11 14 16 16 15 14 13 12 13 12 12 11 10 9 10 12 14 14 14 14 15 16 16 16 15 14 13
19 16 13 13 16 15 14 14 14 14 14 14 16 17 17 17 20 24 26 27 27 26 24 23 24 24 22 21 21 21 19 18 18 18 16 15 13 13 14 13 13 15 15 14 13 12 12 11 11 11 11 9 8 9 9 8 7 6 5 6 8 10 11 12 12 12 11 10 10 10 9 9 9 8 8 8 9 10 10 10 10 11 13 13 13 13 13
20 17 16 17 18 16 16 17 17 17 17 17 19 20 20 21 25 28 28 27 27 26 24 24 25 24 21 21 22 21 19 18 18 17 16 15 13 12 12 12 13 14 15 14 13 12 11 10 10 10 9 7 6 6 6 5 4 4 5 6 7 8 7 6 7 8 9 8 7 6 6 6 6 6 6 5 5 5 6 7 7 7 7 7 8 8 9
24 22 21 22 22 20 20 20 20 19 20 21 22 23 22 22 25 27 26 26 25 25 24 24 24 23 22 21 22 21 19 17 17 16 16 15 13 12 13 13 12 13 13 13 12 11 10 9 9 10 9 8 7 6 6 5 3 3 4 5 6 7 7 5 4 5 5 5 5 5 6 6 5 4 4 4 3 3 3 3 3 3 3 3 3 4 4
24 22 21 23 23 21 21 22 22 22 21 22 24 24 23 23 25 26 26 25 24 23 23 23 23 22 22 22 21 20 18 17 17 17 16 15 14 14 14 13 12 12 11 10 9 9 8 8 8 8 8 8 8 8 8 6 4 4 5 6 6 7 8 6 4 3 2 2 2 3 3 3 3 2 3 3 3 2 1 2 2 2 3 3 3 3 2
21 19 19 20 20 19 18 20 22 23 23 24 26 26 25 25 25 26 26 25 23 22 22 22 22 21 22 21 20 18 16 16 17 17 16 16 15 15 14 13 12 12 10 9 8 7 7 7 8 8 8 9 10 9 8 7 6 5 6 7 7 7 7 7 6 5 3 3 3 3 3 3 2 2 3 4 4 3 2 2 2 3 4 5 5 5 4
21 20 21 21 20 19 18 18 21 23 24 25 28 28 27 26 26 26 26 25 24 23 23 22 21 21 20 19 18 16 15 15 15 15 16 16 15 14 13 12 12 11 10 9 8 8 8 9 9 8 8 10 11 11 10 10 9 8 8 9 8 7 6 7 7 6 5 4 4 5 4 3 2 3 4 4 4 4 4 3 3 3 3 4 4 4 4
22 22 23 23 21 20 18 18 20 22 23 24 27 28 29 28 27 26 26 25 25 24 23 23 22 21 19 17 16 15 15 14 14 15 16 16 15 14 13 13 13 12 11 10 10 10 10 9 8 6 5 6 7 9 10 11 11 10 10 11 10 8 7 7 7 7 7 6 5 5 4 4 4 4 4 3 3 3 3 4 4 3 3 2 1 1 1
24 24 24 23 22 21 18 17 19 21 22 24 26 27 28 28 27 26 26 26 25 25 24 22 21 20 18 17 17 16 16 15 15 16 17 17 16 15 15 15 15 13 11 11 11 10 8 6 4 3 2 3 4 5 7 8 10 10 10 11 11 9 8 7 7 8 8 7 6 6 6 6 6 5 3 3 3 3 3 3 4 4 5 4 2 1 2
24 24 24 24 23 21 19 18 20 21 22 23 24 26 27 27 26 25 25 24 25 25 24 22 21 19 19 20 19 18 18 17 16 16 17 17 16 16 15 13 12 11 10 9 9 8 7 5 4 4 2 3 4 5 7 8 9 10 10 11 10 9 8 7 7 7 7 7 7 7 7 7 7 7 5 4 4 4 4 4 5 4 4 4 3 3 4
23 24 25 24 23 22 21 22 23 23 22 22 23 25 27 27 26 25 24 23 24 24 24 23 22 21 22 22 22 21 20 19 17 16 16 17 17 16 15 13 11 10 9 9 9 8 6 5 5 4 3 2 3 6 9 10 10 10 10 10 10 9 8 8 7 7 7 6 7 7 7 6 7 7 6 5 5 5 4 4 4 5 4 4 3 3 3
21 23 25 25 24 23 23 24 25 25 24 23 22 24 26 26 25 25 24 23 24 25 25 24 23 23 24 24 23 21 20 19 16 15 16 17 17 18 17 16 14 12 12 11 10 8 7 7 6 5 2 2 4 7 11 11 10 10 10 8 8 8 9 8 8 8 8 7 6 6 6 6 6 5 5 5 5 5 5 4 4 5 4 3 2 0 1
20 21 23 25 25 24 23 24 26 27 26 25 23 24 24 24 24 24 23 23 24 25 25 24 24 25 25 24 22 21 20 18 16 15 15 15 15 16 17 16 15 14 13 12 10 8 8 8 6 4 2 1 3 7 12 12 10 10 9 7 6 7 8 8 9 9 8 8 7 7 6 6 6 6 6 6 6 5 5 5 5 4 3 2 1 0 1
19 20 22 24 25 25 24 24 25 27 28 27 25 25 24 24 23 24 23 23 24 25 25 25 26 26 25 24 23 22 20 18 16 16 15 14 13 13 13 14 15 15 13 10 9 8 9 8 7 5 4 1 1 6 12 13 10 9 9 7 6 7 8 8 8 8 8 9 9 9 8 7 7 7 7 7 6 6 6 6 5 4 4 3 2 2 2
20 20 21 23 25 25 25 25 27 29 30 30 28 27 26 25 25 25 25 25 26 27 27 28 29 27 26 25 24 23 21 19 18 17 16 16 15 13 11 12 14 14 12 9 8 9 9 9 7 6 5 3 2 5 12 14 12 10 9 8 7 8 8 7 7 7 7 8 9 9 9 8 8 7 7 7 7 6 5 5 5 5 5 5 5 4 4
18 19 18 19 22 25 27 28 28 30 32 32 30 27 24 24 25 26 26 26 28 30 31 31 31 29 28 27 25 22 20 19 17 15 15 16 17 17 15 15 15 14 11 9 9 9 9 8 7 6 6 5 5 8 13 14 13 11 10 9 8 8 8 7 7 7 6 6 6 6 7 7 8 7 7 7 7 6 5 5 5 6 7 7 7 6 6
15 16 16 16 18 23 27 29 31 32 32 32 30 26 23 23 25 26 27 28 30 33 33 31 31 30 28 27 24 21 19 16 14 13 13 12 12 14 16 16 15 13 10 9 9 9 8 7 6 7 7 8 10 12 14 15 14 12 11 10 9 9 8 8 8 8 7 6 5 5 5 5 6 6 6 5 5 5 4 4 4 5 5 6 7 8 8
13 14 15 16 17 21 26 30 33 32 29 27 26 26 24 22 24 27 29 30 32 32 31 30 29 28 27 25 23 21 19 17 16 16 14 11 10 12 14 14 14 12 10 8 8 8 7 5 5 7 9 11 11 12 13 14 13 12 11 10 9 8 8 7 8 7 6 6 5 5 5 5 6 6 5 5 5 5 5 5 4 4 5 5 6 7 8
14 14 15 16 18 21 26 30 32 31 28 27 28 29 25 22 24 29 33 32 32 31 30 29 28 27 25 23 22 20 17 15 15 16 17 15 13 13 12 12 11 10 8 8 8 9 8 6 6 8 9 10 10 9 10 10 10 10 10 10 9 8 7 6 6 6 6 6 5 5 6 6 6 5 5 5 5 5 5 5 5 5 5 6 6 6 7
13 13 15 17 20 24 27 29 30 30 29 29 30 30 27 23 26 32 34 33 32 31 29 27 26 25 24 22 21 18 15 13 13 14 16 17 16 14 12 11 11 10 8 7 8 8 8 8 8 9 9 9 8 7 6 6 7 8 9 8 7 7 6 5 5 5 4 5 5 5 5 5 5 4 3 3 3 4 4 4 4 4 4 4 4 5 6
12 12 14 18 22 26 29 30 30 30 28 28 30 31 28 26 29 34 36 34 32 31 28 27 26 25 24 23 20 17 15 14 13 14 15 17 17 15 13 13 13 12 9 7 7 8 9 9 10 9 9 9 7 5 3 2 3 5 7 6 5 5 5 5 5 4 3 4 4 4 4 5 4 3 1 1 1 2 2 3 3 3 3 3 4 5 6
12 12 15 18 22 26 29 30 30 29 28 28 30 31 29 26 30 35 36 35 33 31 30 28 27 26 25 23 21 18 16 16 16 16 16 16 16 15 15 15 14 13 11 9 8 9 10 10 10 10 10 9 6 3 4 5 4 3 6 7 6 5 5 5 5 4 4 5 5 4 4 4 3 2 1 1 0 0 1 1 2 2 3 4 5 6 7
10 12 15 18 21 25 28 29 30 29 28 29 31 32 30 29 31 35 37 36 35 33 31 30 29 28 26 24 22 20 19 18 18 18 16 15 15 16 16 15 15 14 12 10 10 10 11 11 11 9 8 6 4 3 4 5 5 5 7 8 6 5 4 4 4 4 5 5 4 4 4 4 3 2 2 2 1 0 1 2 3 3 4 4 5 6 7
Wind_Direction
231 205 207 212 183 198 239 240 262 275 282 298 304 232 244 163 132 232 231 196 206 252 353 35 26 25 36 41 39 43 49 45 39 37 38 36 30 44 165 188 205 213 213 212 207 205 205 204 203 202 201 199 200 202 204 205 208 209 208 205 206 208 208 211 216 217 213 211 213 215 212 209 212 208 204 205 208 212 216 220 222 220 218 219 222 225 226
269 231 215 206 191 220 267 251 249 252 257 271 259 249 259 128 140 211 194 185 220 277 35 54 40 43 54 57 49 47 50 52 51 47 45 51 51 39 86 171 193 215 225 217 208 202 198 199 201 201 200 198 197 200 204 207 207 209 211 209 208 209 208 209 215 217 214 210 211 215 214 209 209 209 207 210 215 218 219 221 226 226 222 220 219 221 224
306 264 212 200 196 215 253 271 274 261 255 286 324 309 328 89 94 317 130 171 242 311 63 74 55 53 58 55 47 44 40 43 55 58 52 50 57 66 75 157 203 214 209 198 206 206 198 193 195 195 195 197 199 201 203 205 207 210 213 211 209 211 209 207 211 215 213 208 207 212 214 211 211 211 209 212 219 222 222 223 228 228 225 222 222 223 227
287 257 209 214 214 209 264 288 298 293 268 174 87 288 267 118 43 337 87 185 249 282 84 79 59 54 61 59 50 51 49 46 57 67 67 58 54 61 76 150 200 209 209 204 208 208 205 206 204 196 191 192 197 201 202 204 207 210 213 211 210 212 209 206 209 212 212 209 206 208 212 212 212 214 212 214 219 222 222 225 228 227 224 224 225 228 232
276 258 210 212 188 49 310 268 244 248 179 145 146 243 280 111 112 125 177 215 234 268 40 80 66 57 69 73 70 76 77 76 77 74 71 71 69 67 68 114 157 173 198 203 207 207 204 207 211 211 205 196 194 197 199 204 210 212 212 210 210 211 209 207 210 212 213 212 209 208 210 211 212 215 215 216 221 224 224 224 224 222 222 224 227 231 235
264 261 208 88 50 55 254 240 160 96 59 111 138 170 272 351 96 135 183 212 211 52 69 107 119 108 101 106 110 105 98 95 91 85 80 77 77 75 70 81 120 126 140 158 173 187 196 201 204 207 212 213 210 202 199 203 209 213 213 210 209 211 210 209 212 214 214 215 213 211 212 211 211 213 215 217 221 225 229 229 226 222 222 225 229 232 236
228 279 71 55 355 238 244 79 94 87 71 66 95 107 9 48 102 124 160 193 122 108 128 140 130 121 115 120 129 119 107 103 95 89 89 85 78 76 71 61 79 109 126 140 155 169 180 189 196 201 208 212 214 213 207 203 204 208 211 210 210 212 212 213 215 216 215 216 215 214 215 215 215 215 216 217 219 224 230 233 234 234 232 233 235 237 241
178 62 89 136 242 253 314 48 79 95 101 131 181 24 348 352 127 151 189 224 172 138 149 147 124 112 103 99 111 123 119 111 99 93 91 82 67 62 60 52 56 86 115 143 154 159 165 175 189 200 206 209 211 214 215 214 213 212 212 211 211 212 214 216 218 218 218 218 218 218 219 219 218 217 217 218 221 225 230 234 237 239 240 242 244 246 248
159 133 163 229 302 315 351 46 202 170 163 186 188 150 295 303 206 166 177 204 182 151 162 163 140 116 95 83 92 115 123 117 104 95 85 68 52 42 47 50 52 73 102 140 147 153 166 173 180 191 203 211 214 216 220 222 222 221 220 218 213 213 214 217 219 220 217 215 216 217 217 216 217 217 217 219 224 228 232 235 237 240 242 244 247 249 250
132 103 120 320 27 261 255 257 254 266 247 200 151 115 283 290 255 187 182 183 175 167 181 183 167 113 28 62 85 111 122 125 114 99 84 71 66 55 50 50 56 79 99 131 141 146 160 169 177 189 203 213 219 222 227 229 227 227 229 229 226 223 220 220 221 219 215 212 213 215 215 217 223 225 222 222 227 230 233 235 237 238 241 244 246 249 249
112 111 143 218 187 215 253 277 298 318 319 277 122 82 309 265 200 193 192 176 173 182 193 194 173 52 7 296 106 116 120 118 105 94 87 85 85 78 53 28 30 83 99 101 125 142 149 157 169 183 196 212 220 224 232 242 245 242 240 238 235 234 230 227 224 221 218 220 222 220 218 219 225 227 223 222 226 229 232 236 238 239 242 244 247 248 247
229 134 149 219 220 231 262 276 297 318 325 345 107 57 277 219 178 200 198 174 177 189 191 192 177 82 221 242 149 112 109 100 90 83 80 79 76 68 43 14 8 65 104 101 111 132 146 148 147 162 182 187 197 215 232 247 253 255 253 246 240 236 233 231 227 220 215 217 217 214 211 213 219 222 222 225 229 231 234 237 238 240 242 242 243 244 245
282 134 135 226 256 239 253 284 313 332 342 30 120 211 237 179 169 204 198 168 172 184 180 191 217 131 133 144 135 119 100 82 75 70 67 65 58 52 49 37 18 41 115 117 120 134 149 143 117 117 139 149 166 239 266 226 252 315 281 242 237 236 233 226 212 202 206 210 207 203 204 211 219 224 225 231 238 240 242 243 243 244 244 243 243 243 243
15 124 121 12 294 258 260 296 325 350 9 231 211 199 177 163 176 200 189 164 167 169 154 152 142 121 120 130 133 117 90 73 65 60 53 51 60 69 67 64 61 72 109 119 120 135 145 140 113 105 102 120 170 357 61 99 91 51 71 180 210 217 215 205 185 183 196 200 190 192 202 208 216 222 224 230 239 244 248 250 250 251 250 248 247 244 240
62 71 80 67 259 257 276 303 328 358 115 185 176 152 157 179 190 191 175 164 166 158 141 131 128 126 126 129 127 113 106 99 84 78 79 72 77 80 74 71 71 81 102 112 106 114 129 130 115 98 89 98 134 90 80 93 100 94 103 118 128 147 167 172 167 173 185 184 179 188 196 201 208 216 222 229 235 241 248 253 258 261 259 254 250 246 239
110 115 181 202 193 220 260 230 181 138 145 157 157 156 168 184 190 187 175 162 157 153 144 135 134 134 130 129 130 124 119 114 104 101 100 93 88 81 72 72 74 79 92 103 101 103 116 128 131 135 162 155 137 123 102 102 114 118 118 122 127 134 140 144 150 162 170 172 178 188 193 199 207 215 223 231 235 240 246 252 260 263 256 249 243 234 229
155 169 200 186 144 122 122 134 140 143 147 160 173 179 181 184 190 192 177 157 149 150 147 140 137 137 136 136 136 129 120 118 117 115 108 98 90 83 77 75 77 82 89 96 102 106 112 124 136 146 160 154 144 134 124 126 143 138 130 131 132 130 130 130 133 141 149 154 164 176 187 197 201 202 210 218 225 237 243 243 266 282 258 244 235 220 214
58 70 113 136 130 128 136 141 147 157 160 171 187 192 191 194 196 192 179 164 153 151 151 146 141 142 144 143 139 133 127 126 127 124 116 106 95 89 86 86 86 89 92 94 100 107 111 120 131 134 136 133 126 121 123 141 152 133 124 128 126 125 127 123 117 119 126 134 146 161 170 176 181 184 191 200 208 239 256 241 307 336 268 228 220 206 202
93 58 148 150 144 150 159 161 171 182 178 180 190 192 195 200 196 189 187 173 158 154 155 152 147 148 148 144 142 139 132 131 136 133 124 114 105 98 95 94 92 92 92 91 92 95 98 105 114 119 124 118 109 108 114 121 121 112 111 121 124 121 119 115 114 116 120 124 129 134 132 126 127 135 136 148 161 123 50 124 63 31 93 171 180 180 184
121 197 174 149 148 161 174 178 188 198 194 187 187 188 193 199 193 188 183 171 160 155 156 156 152 147 145 143 141 136 129 128 134 134 128 119 110 104 99 96 94 91 88 85 85 86 88 91 93 94 100 104 107 111 108 98 96 98 86 83 100 105 104 107 112 115 116 118 115 104 98 96 102 118 125 128 138 141 114 112 120 101 96 118 135 144 155
75 69 112 121 126 161 194 195 202 210 203 191 186 191 196 197 191 181 172 167 162 156 156 159 151 142 142 143 138 131 127 125 126 128 126 121 113 108 104 101 96 91 86 83 83 84 86 88 90 89 88 90 96 105 107 102 101 108 93 88 98 100 99 100 104 105 104 103 100 97 99 100 103 116 130 133 128 127 118 108 116 124 118 120 143 161 178
170 209 169 157 146 231 215 205 205 207 203 199 198 197 195 188 184 178 170 167 164 160 161 159 146 137 142 146 140 134 130 125 123 124 125 124 120 115 112 109 100 90 86 86 85 85 85 88 89 86 83 83 84 86 89 92 97 105 111 109 103 99 97 97 99 103 104 103 102 103 102 102 106 117 127 129 116 101 100 100 101 107 113 124 140 141 152
207 209 190 183 183 217 209 201 197 196 202 209 199 192 191 182 176 176 173 166 158 158 162 160 146 138 141 143 141 136 132 130 130 128 127 127 124 119 118 114 105 95 92 90 88 86 84 84 86 86 85 83 82 81 83 85 88 94 99 100 99 98 97 97 98 101 104 103 101 99 96 95 100 108 113 114 107 98 94 94 94 98 103 108 115 118 120
175 193 190 191 200 226 208 198 192 193 203 207 188 180 185 180 173 172 170 162 155 157 161 159 152 145 141 139 139 136 134 137 141 140 140 138 133 130 128 121 109 101 97 93 90 88 86 84 84 86 86 84 83 84 87 90 92 95 98 100 99 97 95 94 94 96 98 98 95 94 94 92 91 94 98 102 103 100 96 94 95 97 99 101 106 108 109
165 175 182 192 207 214 195 189 189 197 206 200 179 167 172 174 170 165 160 156 155 157 159 157 157 155 146 140 140 140 138 140 142 141 138 133 129 127 124 117 110 104 99 96 92 90 87 83 81 81 80 79 77 78 87 96 99 99 100 100 98 97 95 93 91 91 91 91 89 89 91 91 88 86 87 89 91 94 94 94 93 93 92 93 94 94 93
164 166 170 176 180 172 172 177 187 201 207 202 186 162 158 165 166 159 154 156 158 158 158 158 159 157 151 146 144 143 140 137 134 130 126 122 120 120 119 117 116 112 108 104 98 95 92 88 84 81 79 78 75 75 82 91 95 94 93 90 89 91 93 93 92 91 89 88 87 87 88 88 86 84 82 81 78 79 82 84 86 87 88 88 88 88 86
163 166 162 151 155 170 182 194 203 201 200 205 197 165 153 156 160 154 150 156 160 158 155 156 155 153 151 148 145 144 142 138 135 133 129 126 125 126 125 124 123 122 119 113 108 106 104 99 94 89 85 83 81 81 83 87 88 85 81 78 76 78 81 84 86 89 89 87 87 87 85 83 82 82 81 78 73 71 72 74 75 78 83 85 87 86 85
171 176 173 167 179 185 189 201 212 198 190 196 189 169 157 155 159 157 152 157 161 157 151 152 153 153 153 150 147 148 148 146 145 144 141 139 137 134 133 132 131 131 127 121 117 116 113 107 103 98 93 88 86 87 87 88 87 82 79 81 84 86 86 85 84 85 84 83 84 86 84 82 80 79 76 74 72 71 72 71 70 70 74 78 80 81 82
179 181 181 180 182 177 176 187 202 192 183 182 179 171 163 159 161 162 161 161 162 158 154 154 156 156 156 156 155 154 154 153 150 147 146 147 147 146 144 141 138 138 134 129 130 130 124 119 113 107 104 100 93 90 92 94 92 85 79 85 94 96 96 97 97 97 93 88 87 88 86 84 80 74 71 72 74 73 73 71 70 69 70 72 72 71 73
183 183 178 165 165 171 177 187 191 186 183 184 178 171 168 167 165 163 162 164 164 161 158 157 157 158 160 162 161 159 158 156 151 146 146 147 150 153 155 151 148 147 144 139 139 140 137 133 125 117 114 113 107 103 103 103 101 94 81 85 97 101 101 102 103 103 103 101 99 97 95 95 93 84 75 74 74 72 70 69 68 68 68 67 66 65 67
183 186 183 171 170 180 187 187 187 186 186 186 181 172 170 169 163 159 159 162 163 162 160 158 158 162 165 166 163 161 159 156 153 151 151 152 151 153 158 160 159 156 153 150 151 152 151 147 138 128 126 128 128 128 127 120 116 115 111 109 107 103 103 110 113 110 109 112 114 112 110 109 107 101 91 79 72 69 67 67 67 66 64 62 60 58 60
179 179 177 174 177 184 187 186 186 186 184 184 182 177 173 170 164 160 160 163 163 163 163 162 163 166 169 166 164 164 163 160 159 160 161 161 159 157 161 168 170 166 165 165 165 165 166 164 154 145 145 156 166 165 160 153 142 137 137 134 126 115 111 116 119 114 109 110 116 117 116 112 107 104 104 100 84 73 70 73 77 77 71 67 64 58 55
172 166 169 176 179 182 186 189 189 187 185 184 181 177 176 176 172 167 166 167 167 168 168 169 170 172 173 170 169 170 169 167 167 169 170 170 168 165 167 174 177 175 172 171 170 169 172 174 169 162 164 176 188 195 197 193 172 155 157 157 151 147 144 134 116 107 103 102 106 109 110 110 105 99 106 115 110 90 71 68 73 66 50 50 62 64 63
185 183 187 192 192 190 192 194 192 188 186 185 182 178 177 178 177 175 174 175 175 176 176 176 177 178 177 177 177 177 177 176 175 174 175 177 175 172 174 178 179 177 174 170 168 172 175 177 176 178 185 192 195 195 197 197 191 187 186 182 177 177 174 166 153 145 146 156 152 135 130 135 135 122 125 132 129 114 20 336 339 342 344 344 343 349 5
204 205 204 205 206 204 203 200 195 189 185 185 185 184 182 182 182 181 180 181 183 184 183 181 181 179 178 179 181 181 183 184 182 179 181 182 180 179 181 182 181 180 177 174 178 189 196 197 199 202 208 211 208 202 196 194 195 194 190 187 189 190 186 181 178 179 187 202 208 207 203 206 208 197 185 187 193 202 230 284 303 310 315 315 310 309 306
207 206 202 202 204 204 203 204 201 194 188 187 189 190 190 190 190 188 185 185 187 187 186 185 183 181 181 184 185 184 184 184 184 183 183 182 180 180 184 187 187 187 187 191 202 219 231 237 241 240 232 224 219 216 215 214 212 204 196 192 190 186 183 185 187 186 188 198 214 222 220 220 226 222 213 210 212 213 217 229 247 275 307 323 324 316 305
209 208 204 201 200 198 200 204 205 200 194 191 192 195 196 197 198 197 193 191 190 190 191 190 189 188 189 191 191 189 187 187 188 184 181 180 182 184 188 191 193 195 200 207 215 225 236 246 253 253 240 227 224 225 224 221 219 215 211 205 199 194 189 183 178 179 183 187 195 213 229 244 246 232 220 214 212 208 211 217 223 235 249 264 341 11 24
208 210 207 203 199 197 199 203 204 204 201 196 195 198 200 201 202 202 201 200 200 199 198 197 197 197 196 194 194 193 193 192 189 186 184 185 188 192 195 198 199 201 203 205 209 217 227 239 255 264 236 204 203 208 205 202 203 207 210 207 204 203 204 198 190 191 195 195 197 206 218 227 226 223 224 225 220 213 206 200 201 220 236 239 246 253 190
207 210 208 203 199 197 199 202 203 205 205 202 200 201 203 205 206 205 204 205 206 205 204 203 201 198 197 195 195 195 193 191 188 189 191 193 195 197 201 204 205 205 203 201 208 221 234 250 272 279 257 204 188 182 179 182 189 195 201 203 202 204 209 211 209 208 210 214 220 223 223 222 224 230 240 242 231 220 215 210 210 225 240 243 241 234 209
205 205 201 198 196 197 200 203 204 205 206 207 207 205 204 206 208 207 204 204 205 205 205 205 202 199 198 197 195 192 190 190 192 195 197 197 197 200 201 200 200 204 209 212 219 230 242 257 269 264 238 175 159 166 170 176 185 191 196 200 202 204 208 212 213 215 218 222 226 227 224 221 221 224 225 224 223 224 226 228 238 252 264 270 261 238 212
202 201 200 199 198 199 203 207 208 207 206 208 211 210 208 207 207 206 203 201 201 201 203 204 203 201 199 196 194 192 192 193 197 203 203 201 201 203 203 199 196 200 209 215 224 236 244 248 252 246 215 132 134 159 170 176 184 190 192 195 203 211 218 223 224 225 224 221 218 217 217 215 212 207 203 206 216 225 229 235 244 251 260 275 284 235 124
202 202 204 204 204 204 205 207 208 208 208 209 212 213 212 210 208 206 204 202 201 201 203 203 202 200 198 195 194 193 194 197 203 208 208 207 208 209 206 199 195 200 209 215 223 234 236 230 229 227 208 109 118 164 176 181 185 189 189 191 201 213 219 223 224 225 227 225 223 223 225 224 225 223 220 218 224 231 235 238 242 244 251 268 291 54 110
209 209 208 206 207 208 208 207 208 210 210 211 212 214 214 213 210 207 205 203 203 204 202 198 196 196 197 197 197 197 199 205 208 207 203 204 209 215 217 209 203 204 210 214 218 224 226 224 224 221 213 213 118 171 181 187 192 194 195 201 211 215 216 218 220 225 232 236 234 232 230 229 228 229 227 226 231 239 244 246 245 249 262 276 279 277 277
211 212 210 209 210 212 211 210 209 208 208 207 207 207 207 209 209 207 206 205 204 203 200 196 195 197 199 201 204 206 208 209 208 205 200 195 192 195 208 216 211 205 203 210 221 229 229 227 226 225 228 248 253 187 187 191 196 198 201 209 217 218 217 219 222 228 234 237 237 237 237 237 239 241 240 239 243 249 255 259 260 265 275 284 289 293 292
208 209 209 209 211 213 214 213 212 210 209 209 207 205 205 208 208 208 208 206 204 202 200 198 198 200 203 207 212 215 214 213 214 215 213 205 195 189 193 205 212 210 209 217 228 231 229 228 232 237 240 238 213 191 190 194 197 200 204 208 209 208 207 205 207 210 212 214 220 228 233 238 243 246 243 242 245 253 264 273 275 276 278 282 287 294 300
216 218 218 217 216 216 216 215 213 209 206 204 202 201 205 210 212 211 211 208 203 201 201 201 203 205 208 211 212 210 206 207 215 222 224 224 217 205 199 202 209 213 215 223 228 227 224 228 234 231 219 204 193 191 194 197 198 201 204 207 209 212 212 208 205 205 203 200 201 204 206 212 220 224 226 227 234 244 257 270 278 281 285 287 288 292 300
226 224 223 223 221 218 214 211 207 202 199 201 204 203 203 206 210 210 208 205 202 201 202 204 206 209 211 210 207 204 202 204 208 211 211 214 219 214 207 205 208 211 215 222 225 219 216 219 218 206 197 192 192 195 200 204 206 210 213 214 216 218 217 216 215 216 215 212 209 206 206 208 211 216 223 230 233 237 248 265 283 299 306 305 300 298 299
232 227 221 219 218 216 214 212 208 204 204 210 215 210 203 201 205 206 204 202 201 202 204 205 207 209 210 208 206 208 213 219 219 215 207 201 202 205 205 202 203 205 205 206 211 214 217 220 213 200 196 197 199 200 204 210 215 219 220 220 220 220 221 225 229 231 231 230 222 212 211 216 219 219 222 226 231 240 254 269 289 308 318 319 317 313 311
236 234 226 219 217 216 214 212 211 208 206 208 210 207 202 199 200 201 201 202 202 202 204 206 208 209 209 207 206 209 218 228 233 229 216 205 202 204 203 199 197 197 191 188 197 210 216 213 205 198 197 200 200 200 205 216 223 226 228 227 224 221 223 226 225 224 223 219 209 202 201 206 212 217 221 222 230 249 266 276 288 303 314 319 326 331 333
234 235 228 221 218 216 214 213 212 211 208 206 204 202 199 197 197 199 201 203 205 205 207 210 212 211 210 208 208 210 215 218 221 222 217 209 206 208 209 205 202 201 201 200 202 204 203 201 198 194 192 191 188 177 161 172 209 220 220 215 203 189 179 170 166 172 179 176 175 179 185 189 192 199 218 235 241 264 288 306 320 331 343 354 360 2 5
233 235 230 224 219 216 214 214 215 215 214 211 206 201 197 198 202 203 204 205 207 208 209 210 211 211 210 208 207 209 211 210 207 208 210 211 210 211 211 209 207 208 211 211 205 196 190 188 187 185 183 181 172 129 77 63 71 136 170 169 159 151 149 143 137 142 155 155 151 152 158 162 166 185 242 295 318 323 3 28 38 43 44 39 33 34 43
224 227 227 224 220 217 215 215 217 219 218 213 205 199 196 199 203 205 206 209 212 212 211 210 209 208 208 208 205 204 205 206 205 204 206 210 209 207 206 209 211 212 207 195 183 176 173 174 178 181 178 167 138 87 66 66 78 115 152 159 148 134 138 142 140 151 161 156 142 143 154 153 144 154 194 199 187 132 77 81 79 72 68 68 65 62 65